MLISHS1 PANC-CYEG

Flight info

Callsign MLISHS1
Flight time 2h 28m
Altitude 27000
Route POTTR3 YESKA JAGIT YXY J515 YYE J537 YPE Q807 EXDEE
Aircraft F16/M-VRDW/C

Departure

Time 2026-05-05 21:10
Airport Ted Stevens Anchorage International Airport (PANC)

Arrival

Time 2026-05-05 23:38
Airport Edmonton International Airport (CYEG)
Time Latitude Longitude Altitude Speed Heading
2026-05-05 20:59 61.16520 -149.97548 155 ft 0 kts 301°
2026-05-05 21:04 61.16526 -149.97562 155 ft 3 kts 322°
2026-05-05 21:04 61.16556 -149.97543 155 ft 6 kts 53°
2026-05-05 21:04 61.16606 -149.97475 155 ft 10 kts 28°
2026-05-05 21:04 61.16680 -149.97391 155 ft 12 kts 29°
2026-05-05 21:05 61.16687 -149.97382 155 ft 0 kts 29°
2026-05-05 21:05 61.16722 -149.97343 155 ft 8 kts 25°
2026-05-05 21:05 61.16793 -149.97322 155 ft 12 kts
2026-05-05 21:06 61.16847 -149.97182 155 ft 15 kts 77°
2026-05-05 21:06 61.16893 -149.96954 155 ft 18 kts 68°
2026-05-05 21:06 61.16980 -149.96806 155 ft 18 kts
2026-05-05 21:06 61.17091 -149.96812 155 ft 11 kts 340°
2026-05-05 21:07 61.17128 -149.96971 155 ft 15 kts 269°
2026-05-05 21:07 61.17126 -149.97215 155 ft 18 kts 269°
2026-05-05 21:07 61.17119 -149.97492 155 ft 21 kts 265°
2026-05-05 21:07 61.17118 -149.97819 155 ft 23 kts 269°
2026-05-05 21:08 61.17117 -149.98166 155 ft 23 kts 270°
2026-05-05 21:08 61.17117 -149.98497 155 ft 20 kts 271°
2026-05-05 21:08 61.17117 -149.98804 155 ft 21 kts 271°
2026-05-05 21:08 61.17124 -149.99056 155 ft 11 kts 273°
2026-05-05 21:09 61.17126 -149.99242 155 ft 14 kts 270°
2026-05-05 21:09 61.17111 -149.99451 155 ft 14 kts 223°
2026-05-05 21:09 61.17065 -149.99474 155 ft 1 kts 161°
2026-05-05 21:09 61.17014 -149.99448 155 ft 13 kts 172°
2026-05-05 21:10 61.16977 -149.99377 155 ft 0 kts 90°
2026-05-05 21:10 61.16977 -149.98154 172 ft 232 kts 90°
2026-05-05 21:10 61.16993 -149.93584 2858 ft 414 kts 86°
2026-05-05 21:11 61.17079 -149.88638 7775 ft 467 kts 90°
2026-05-05 21:11 61.16345 -149.81207 9565 ft 589 kts 117°
2026-05-05 21:11 61.14255 -149.74206 12652 ft 575 kts 124°
2026-05-05 21:11 61.12177 -149.67876 17594 ft 549 kts 126°
2026-05-05 21:12 61.10142 -149.61667 21511 ft 540 kts 127°
2026-05-05 21:12 61.08137 -149.55261 23645 ft 535 kts 126°
2026-05-05 21:12 61.06167 -149.48753 25340 ft 541 kts 127°
2026-05-05 21:12 61.04131 -149.42299 26111 ft 538 kts 130°
2026-05-05 21:13 61.01935 -149.36163 26891 ft 540 kts 122°
2026-05-05 21:13 61.01208 -149.28319 26813 ft 575 kts 92°
2026-05-05 21:13 61.01715 -149.20082 26741 ft 584 kts 88°
2026-05-05 21:13 61.02284 -149.11838 26752 ft 571 kts 88°
2026-05-05 21:14 61.02826 -149.03767 26759 ft 564 kts 88°
2026-05-05 21:14 61.03363 -148.95752 26755 ft 564 kts 88°
2026-05-05 21:14 61.03916 -148.87788 26756 ft 564 kts 88°
2026-05-05 21:14 61.04470 -148.79698 26753 ft 566 kts 88°
2026-05-05 21:15 61.05041 -148.71622 26755 ft 569 kts 88°
2026-05-05 21:15 61.05628 -148.63547 26753 ft 569 kts 87°
2026-05-05 21:15 61.06225 -148.55441 26753 ft 570 kts 87°
2026-05-05 21:15 61.06824 -148.47423 26754 ft 570 kts 87°
2026-05-05 21:16 61.07402 -148.39258 26760 ft 570 kts 88°
2026-05-05 21:16 61.07949 -148.31146 26754 ft 569 kts 89°
2026-05-05 21:16 61.08501 -148.23009 26751 ft 569 kts 88°
2026-05-05 21:16 61.09054 -148.14957 26752 ft 569 kts 88°
2026-05-05 21:17 61.09615 -148.06839 26756 ft 569 kts 89°
2026-05-05 21:17 61.10139 -147.98755 26757 ft 568 kts 89°
2026-05-05 21:17 61.10651 -147.90639 26753 ft 568 kts 89°
2026-05-05 21:17 61.11172 -147.82474 26753 ft 569 kts 89°
2026-05-05 21:18 61.11680 -147.74477 26795 ft 567 kts 89°
2026-05-05 21:18 61.12163 -147.66287 26853 ft 567 kts 89°
2026-05-05 21:18 61.12629 -147.58200 26908 ft 566 kts 89°
2026-05-05 21:18 61.13095 -147.50189 26927 ft 567 kts 89°
2026-05-05 21:19 61.13578 -147.41988 26929 ft 567 kts 89°
2026-05-05 21:19 61.14021 -147.33943 26935 ft 566 kts 90°
2026-05-05 21:19 61.14440 -147.25771 26929 ft 566 kts 91°
2026-05-05 21:19 61.14851 -147.17719 26926 ft 566 kts 90°
2026-05-05 21:20 61.15268 -147.09639 26927 ft 566 kts 90°
2026-05-05 21:20 61.15693 -147.01454 26930 ft 567 kts 90°
2026-05-05 21:20 61.16071 -146.93367 26933 ft 568 kts 91°
2026-05-05 21:20 61.16428 -146.85178 26930 ft 570 kts 91°
2026-05-05 21:21 61.16783 -146.77033 26929 ft 571 kts 91°
2026-05-05 21:21 61.17144 -146.68842 26929 ft 571 kts 90°
2026-05-05 21:21 61.17490 -146.60559 26935 ft 571 kts 91°
2026-05-05 21:21 61.17806 -146.52437 26931 ft 570 kts 91°
2026-05-05 21:22 61.18123 -146.44264 26930 ft 570 kts 91°
2026-05-05 21:22 61.18447 -146.36037 26931 ft 570 kts 91°
2026-05-05 21:22 61.18742 -146.27780 26932 ft 569 kts 92°
2026-05-05 21:22 61.19011 -146.19615 26928 ft 568 kts 92°
2026-05-05 21:23 61.19284 -146.11401 26927 ft 568 kts 92°
2026-05-05 21:23 61.19558 -146.03267 26927 ft 568 kts 92°
2026-05-05 21:23 61.19814 -145.95038 26928 ft 568 kts 93°
2026-05-05 21:23 61.20041 -145.86932 26928 ft 568 kts 93°
2026-05-05 21:24 61.20270 -145.78755 26928 ft 568 kts 93°
2026-05-05 21:24 61.20498 -145.70541 26929 ft 568 kts 93°
2026-05-05 21:24 61.20689 -145.62427 26925 ft 568 kts 93°
2026-05-05 21:24 61.20873 -145.54179 26908 ft 568 kts 93°
2026-05-05 21:25 61.21057 -145.46007 26890 ft 568 kts 93°
2026-05-05 21:25 61.21221 -145.37857 26877 ft 568 kts 94°
2026-05-05 21:25 61.21361 -145.29578 26873 ft 567 kts 95°
2026-05-05 21:25 61.21499 -145.21510 26872 ft 567 kts 95°
2026-05-05 21:26 61.21627 -145.13243 26872 ft 567 kts 95°
2026-05-05 21:26 61.21709 -145.05022 26873 ft 570 kts 95°
2026-05-05 21:26 61.21775 -144.96788 26873 ft 573 kts 95°
2026-05-05 21:26 61.21838 -144.88541 26874 ft 575 kts 95°
2026-05-05 21:27 61.21858 -144.80158 26875 ft 577 kts 96°
2026-05-05 21:27 61.21853 -144.71831 26875 ft 578 kts 96°
2026-05-05 21:27 61.21847 -144.63475 26875 ft 578 kts 96°
2026-05-05 21:27 61.21844 -144.55129 26876 ft 578 kts 96°
2026-05-05 21:28 61.21814 -144.46716 26876 ft 578 kts 96°
2026-05-05 21:28 61.21745 -144.38413 26877 ft 578 kts 96°
2026-05-05 21:28 61.21670 -144.30069 26873 ft 577 kts 97°
2026-05-05 21:28 61.21599 -144.21739 26872 ft 577 kts 97°
2026-05-05 21:29 61.21527 -144.13422 26873 ft 577 kts 97°
2026-05-05 21:29 61.21414 -144.05072 26873 ft 576 kts 98°
2026-05-05 21:29 61.21284 -143.96802 26873 ft 576 kts 98°
2026-05-05 21:29 61.21153 -143.88451 26874 ft 576 kts 98°
2026-05-05 21:30 61.21000 -143.80148 26874 ft 576 kts 98°
2026-05-05 21:30 61.20811 -143.71864 26875 ft 576 kts 99°
2026-05-05 21:30 61.20615 -143.63504 26875 ft 576 kts 98°
2026-05-05 21:30 61.20420 -143.55235 26876 ft 575 kts 99°
2026-05-05 21:31 61.20181 -143.46916 26861 ft 576 kts 99°
2026-05-05 21:31 61.19918 -143.38701 26797 ft 577 kts 99°
2026-05-05 21:31 61.19647 -143.30306 26717 ft 578 kts 100°
2026-05-05 21:31 61.19357 -143.21997 26660 ft 577 kts 101°
2026-05-05 21:32 61.19025 -143.13744 26650 ft 576 kts 101°
2026-05-05 21:32 61.18682 -143.05508 26646 ft 576 kts 101°
2026-05-05 21:32 61.18329 -142.97214 26645 ft 577 kts 102°
2026-05-05 21:32 61.17909 -142.88917 26645 ft 578 kts 102°
2026-05-05 21:33 61.17435 -142.80545 26646 ft 581 kts 102°
2026-05-05 21:33 61.16946 -142.72189 26647 ft 584 kts 102°
2026-05-05 21:33 61.16418 -142.63864 26647 ft 584 kts 103°
2026-05-05 21:33 61.15853 -142.55591 26648 ft 584 kts 103°
2026-05-05 21:34 61.15274 -142.47229 26648 ft 584 kts 103°
2026-05-05 21:34 61.14679 -142.38915 26649 ft 584 kts 104°
2026-05-05 21:34 61.14027 -142.30530 26644 ft 583 kts 105°
2026-05-05 21:34 61.13368 -142.22314 26641 ft 583 kts 105°
2026-05-05 21:35 61.12691 -142.14031 26638 ft 582 kts 106°
2026-05-05 21:35 61.11956 -142.05727 26636 ft 581 kts 106°
2026-05-05 21:35 61.11205 -141.97528 26635 ft 581 kts 106°
2026-05-05 21:35 61.10422 -141.89391 26636 ft 580 kts 108°
2026-05-05 21:36 61.09570 -141.81184 26636 ft 579 kts 108°
2026-05-05 21:36 61.08699 -141.73039 26637 ft 579 kts 108°
2026-05-05 21:36 61.07780 -141.65022 26637 ft 578 kts 109°
2026-05-05 21:36 61.06792 -141.56973 26644 ft 577 kts 110°
2026-05-05 21:37 61.05757 -141.48866 26647 ft 575 kts 111°
2026-05-05 21:37 61.04666 -141.41022 26647 ft 574 kts 112°
2026-05-05 21:37 61.03487 -141.33098 26645 ft 573 kts 114°
2026-05-05 21:37 61.02228 -141.25346 26642 ft 571 kts 116°
2026-05-05 21:38 61.00859 -141.17656 26642 ft 568 kts 118°
2026-05-05 21:38 60.99329 -141.10127 26647 ft 564 kts 121°
2026-05-05 21:38 60.97711 -141.02820 26643 ft 567 kts 121°
2026-05-05 21:38 60.96366 -140.95137 26710 ft 576 kts 105°
2026-05-05 21:39 60.96025 -140.86841 26681 ft 585 kts 95°
2026-05-05 21:39 60.95974 -140.78447 26651 ft 589 kts 94°
2026-05-05 21:39 60.95925 -140.69949 26647 ft 591 kts 94°
2026-05-05 21:39 60.95857 -140.61403 26647 ft 593 kts 94°
2026-05-05 21:40 60.95796 -140.52937 26638 ft 596 kts 94°
2026-05-05 21:40 60.95738 -140.44385 26626 ft 598 kts 94°
2026-05-05 21:40 60.95641 -140.35765 26615 ft 599 kts 94°
2026-05-05 21:40 60.95527 -140.27237 26607 ft 600 kts 95°
2026-05-05 21:41 60.95419 -140.18599 26606 ft 600 kts 95°
2026-05-05 21:41 60.95322 -140.10016 26607 ft 600 kts 95°
2026-05-05 21:41 60.95205 -140.01388 26607 ft 599 kts 95°
2026-05-05 21:41 60.95056 -139.92824 26608 ft 599 kts 95°
2026-05-05 21:42 60.94909 -139.84325 26608 ft 596 kts 95°
2026-05-05 21:42 60.94791 -139.76172 26604 ft 551 kts 95°
2026-05-05 21:42 60.94656 -139.68248 26610 ft 553 kts 96°
2026-05-05 21:42 60.94503 -139.60347 26611 ft 557 kts 96°
2026-05-05 21:43 60.94353 -139.52345 26612 ft 560 kts 95°
2026-05-05 21:43 60.94207 -139.44322 26612 ft 563 kts 96°
2026-05-05 21:43 60.94024 -139.36226 26613 ft 566 kts 96°
2026-05-05 21:43 60.93834 -139.28093 26607 ft 569 kts 97°
2026-05-05 21:44 60.93653 -139.19978 26606 ft 572 kts 96°
2026-05-05 21:44 60.93447 -139.11760 26607 ft 574 kts 97°
2026-05-05 21:44 60.93211 -139.03543 26607 ft 576 kts 97°
2026-05-05 21:44 60.92977 -138.95395 26608 ft 579 kts 97°
2026-05-05 21:45 60.92747 -138.87059 26609 ft 582 kts 97°
2026-05-05 21:45 60.92480 -138.78763 26610 ft 584 kts 98°
2026-05-05 21:45 60.92186 -138.70480 26610 ft 586 kts 98°
2026-05-05 21:45 60.91890 -138.62021 26611 ft 589 kts 97°
2026-05-05 21:46 60.91609 -138.53731 26612 ft 592 kts 97°
2026-05-05 21:46 60.91290 -138.45207 26612 ft 594 kts 98°
2026-05-05 21:46 60.90945 -138.36806 26613 ft 596 kts 98°
2026-05-05 21:46 60.90599 -138.28346 26606 ft 599 kts 99°
2026-05-05 21:47 60.90257 -138.19710 26606 ft 601 kts 99°
2026-05-05 21:47 60.89887 -138.11224 26610 ft 601 kts 99°
2026-05-05 21:47 60.89481 -138.02652 26615 ft 602 kts 99°
2026-05-05 21:47 60.89059 -137.94139 26616 ft 602 kts 99°
2026-05-05 21:48 60.88619 -137.85590 26616 ft 602 kts 100°
2026-05-05 21:48 60.88161 -137.77028 26617 ft 602 kts 100°
2026-05-05 21:48 60.87683 -137.68448 26618 ft 602 kts 100°
2026-05-05 21:48 60.87179 -137.59927 26618 ft 601 kts 101°
2026-05-05 21:49 60.86653 -137.51476 26615 ft 573 kts 101°
2026-05-05 21:49 60.86175 -137.43526 26619 ft 569 kts 101°
2026-05-05 21:49 60.85677 -137.35504 26620 ft 569 kts 101°
2026-05-05 21:49 60.85135 -137.27356 26614 ft 569 kts 103°
2026-05-05 21:50 60.84588 -137.19411 26640 ft 569 kts 102°
2026-05-05 21:50 60.84040 -137.11360 26683 ft 568 kts 102°
2026-05-05 21:50 60.83482 -137.03361 26729 ft 567 kts 103°
2026-05-05 21:50 60.82889 -136.95363 26750 ft 567 kts 103°
2026-05-05 21:51 60.82272 -136.87294 26753 ft 567 kts 103°
2026-05-05 21:51 60.81668 -136.79346 26754 ft 567 kts 103°
2026-05-05 21:51 60.81050 -136.71393 26754 ft 567 kts 103°
2026-05-05 21:51 60.80389 -136.63362 26755 ft 567 kts 104°
2026-05-05 21:52 60.79059 -136.47511 26756 ft 567 kts 103°
2026-05-05 21:52 60.78377 -136.39555 26756 ft 567 kts 104°
2026-05-05 21:52 60.77648 -136.31500 26752 ft 567 kts 105°
2026-05-05 21:53 60.76920 -136.23614 26750 ft 567 kts 105°
2026-05-05 21:53 60.76187 -136.15613 26750 ft 568 kts 105°
2026-05-05 21:53 60.75450 -136.07645 26751 ft 567 kts 105°
2026-05-05 21:53 60.74704 -135.99727 26751 ft 567 kts 105°
2026-05-05 21:54 60.73910 -135.91811 26752 ft 567 kts 107°
2026-05-05 21:54 60.73066 -135.83936 26752 ft 566 kts 107°
2026-05-05 21:54 60.72213 -135.76146 26753 ft 566 kts 107°
2026-05-05 21:54 60.71301 -135.68289 26754 ft 566 kts 108°
2026-05-05 21:55 60.70320 -135.60439 26754 ft 565 kts 109°
2026-05-05 21:55 60.69310 -135.52667 26755 ft 565 kts 110°
2026-05-05 21:55 60.68234 -135.45064 26755 ft 564 kts 111°
2026-05-05 21:55 60.67062 -135.37343 26756 ft 563 kts 113°
2026-05-05 21:56 60.65798 -135.29858 26751 ft 561 kts 116°
2026-05-05 21:56 60.64402 -135.22420 26750 ft 559 kts 118°
2026-05-05 21:56 60.62867 -135.15083 26749 ft 558 kts 117°
2026-05-05 21:56 60.61877 -135.07382 26822 ft 565 kts 98°
2026-05-05 21:57 60.61575 -134.99396 26762 ft 568 kts 96°
2026-05-05 21:57 60.61328 -134.91272 26752 ft 568 kts 97°
2026-05-05 21:57 60.61026 -134.83258 26752 ft 568 kts 97°
2026-05-05 21:57 60.60703 -134.75296 26752 ft 569 kts 97°
2026-05-05 21:58 60.60377 -134.67288 26753 ft 569 kts 97°
2026-05-05 21:58 60.60036 -134.59149 26753 ft 569 kts 98°
2026-05-05 21:58 60.59695 -134.51209 26754 ft 570 kts 98°
2026-05-05 21:58 60.59340 -134.43141 26755 ft 570 kts 98°
2026-05-05 21:59 60.58975 -134.35069 26755 ft 571 kts 98°
2026-05-05 21:59 60.58605 -134.27060 26748 ft 571 kts 99°
2026-05-05 21:59 60.58227 -134.19006 26748 ft 571 kts 99°
2026-05-05 21:59 60.57841 -134.10959 26749 ft 571 kts 99°
2026-05-05 22:00 60.57451 -134.02943 26750 ft 571 kts 99°
2026-05-05 22:00 60.57048 -133.94821 26750 ft 571 kts 99°
2026-05-05 22:00 60.56620 -133.86855 26756 ft 571 kts 100°
2026-05-05 22:00 60.56147 -133.78746 26778 ft 571 kts 100°
2026-05-05 22:01 60.55669 -133.70720 26803 ft 570 kts 100°
2026-05-05 22:01 60.55186 -133.62730 26823 ft 570 kts 100°
2026-05-05 22:01 60.54692 -133.54710 26826 ft 570 kts 101°
2026-05-05 22:01 60.54157 -133.46788 26827 ft 570 kts 101°
2026-05-05 22:02 60.53587 -133.38776 26828 ft 570 kts 101°
2026-05-05 22:02 60.53014 -133.30817 26822 ft 571 kts 102°
2026-05-05 22:02 60.52421 -133.22790 26821 ft 571 kts 103°
2026-05-05 22:02 60.51780 -133.14853 26821 ft 570 kts 103°
2026-05-05 22:03 60.51110 -133.06976 26822 ft 570 kts 103°
2026-05-05 22:03 60.50358 -132.99031 26823 ft 569 kts 104°
2026-05-05 22:03 60.49552 -132.91213 26823 ft 569 kts 105°
2026-05-05 22:03 60.48712 -132.83310 26824 ft 570 kts 105°
2026-05-05 22:04 60.47848 -132.75429 26825 ft 569 kts 106°
2026-05-05 22:04 60.46919 -132.67629 26825 ft 569 kts 107°
2026-05-05 22:04 60.45945 -132.59906 26826 ft 569 kts 108°
2026-05-05 22:04 60.44854 -132.52132 26827 ft 568 kts 110°
2026-05-05 22:05 60.43652 -132.44505 26828 ft 567 kts 112°
2026-05-05 22:05 60.42585 -132.36771 26888 ft 568 kts 99°
2026-05-05 22:05 60.42033 -132.28832 26829 ft 571 kts 99°
2026-05-05 22:05 60.41562 -132.20790 26822 ft 571 kts 99°
2026-05-05 22:06 60.41087 -132.12877 26821 ft 571 kts 99°
2026-05-05 22:06 60.40586 -132.04814 26822 ft 571 kts 99°
2026-05-05 22:06 60.40086 -131.96832 26822 ft 572 kts 99°
2026-05-05 22:06 60.39587 -131.88881 26837 ft 571 kts 99°
2026-05-05 22:07 60.39086 -131.80914 27028 ft 567 kts 99°
2026-05-05 22:07 60.38592 -131.73084 27043 ft 567 kts 99°
2026-05-05 22:07 60.38089 -131.65179 27045 ft 567 kts 99°
2026-05-05 22:07 60.37539 -131.57169 27046 ft 567 kts 100°
2026-05-05 22:08 60.36980 -131.49278 27046 ft 568 kts 100°
2026-05-05 22:08 60.36420 -131.41414 27047 ft 568 kts 100°
2026-05-05 22:08 60.35848 -131.33417 27045 ft 568 kts 101°
2026-05-05 22:08 60.35289 -131.25597 27040 ft 568 kts 101°
2026-05-05 22:09 60.34715 -131.17570 27038 ft 568 kts 101°
2026-05-05 22:09 60.34142 -131.09790 27036 ft 568 kts 101°
2026-05-05 22:09 60.33517 -131.01775 27034 ft 568 kts 102°
2026-05-05 22:09 60.32899 -130.93907 27034 ft 568 kts 101°
2026-05-05 22:10 60.32275 -130.85991 27034 ft 569 kts 102°
2026-05-05 22:10 60.31620 -130.78191 27035 ft 568 kts 102°
2026-05-05 22:10 60.30922 -130.70232 27040 ft 569 kts 102°
2026-05-05 22:10 60.30238 -130.62470 27046 ft 569 kts 102°
2026-05-05 22:11 60.29546 -130.54614 27053 ft 569 kts 102°
2026-05-05 22:11 60.28851 -130.46767 27056 ft 569 kts 102°
2026-05-05 22:11 60.28113 -130.38876 27056 ft 569 kts 103°
2026-05-05 22:11 60.27356 -130.30972 27050 ft 569 kts 103°
2026-05-05 22:12 60.26609 -130.23135 27049 ft 569 kts 103°
2026-05-05 22:12 60.25867 -130.15324 27049 ft 569 kts 104°
2026-05-05 22:12 60.25085 -130.07575 27050 ft 569 kts 104°
2026-05-05 22:12 60.24252 -129.99771 27051 ft 569 kts 105°
2026-05-05 22:13 60.23413 -129.91963 27051 ft 569 kts 105°
2026-05-05 22:13 60.22580 -129.84198 27052 ft 569 kts 104°
2026-05-05 22:13 60.21739 -129.76327 27053 ft 569 kts 105°
2026-05-05 22:13 60.20877 -129.68655 27053 ft 569 kts 105°
2026-05-05 22:14 60.19958 -129.60802 27054 ft 569 kts 105°
2026-05-05 22:14 60.19060 -129.53154 27055 ft 570 kts 105°
2026-05-05 22:14 60.18127 -129.45367 27056 ft 569 kts 107°
2026-05-05 22:14 60.17136 -129.37608 27056 ft 569 kts 107°
2026-05-05 22:15 60.16144 -129.29988 27049 ft 570 kts 108°
2026-05-05 22:15 60.15102 -129.22261 27049 ft 569 kts 109°
2026-05-05 22:15 60.14001 -129.14594 27049 ft 569 kts 110°
2026-05-05 22:15 60.12873 -129.07082 27050 ft 568 kts 111°
2026-05-05 22:16 60.11631 -128.99561 27051 ft 567 kts 112°
2026-05-05 22:16 60.10290 -128.92110 27052 ft 567 kts 113°
2026-05-05 22:16 60.09007 -128.84645 27063 ft 567 kts 109°
2026-05-05 22:16 60.07793 -128.77101 27055 ft 567 kts 110°
2026-05-05 22:17 60.06580 -128.69623 27054 ft 567 kts 110°
2026-05-05 22:17 60.05370 -128.62065 27055 ft 568 kts 109°
2026-05-05 22:17 60.04178 -128.54558 27056 ft 568 kts 109°
2026-05-05 22:17 60.02987 -128.47029 27056 ft 568 kts 109°
2026-05-05 22:18 60.01799 -128.39471 27057 ft 569 kts 109°
2026-05-05 22:18 60.00585 -128.31920 27052 ft 569 kts 110°
2026-05-05 22:18 59.99339 -128.24364 27050 ft 569 kts 110°
2026-05-05 22:18 59.98106 -128.16873 27050 ft 569 kts 110°
2026-05-05 22:19 59.96881 -128.09358 27051 ft 569 kts 110°
2026-05-05 22:19 59.95654 -128.01904 27051 ft 569 kts 111°
2026-05-05 22:19 59.94378 -127.94396 27052 ft 569 kts 111°
2026-05-05 22:19 59.93106 -127.86931 27053 ft 569 kts 111°
2026-05-05 22:20 59.91822 -127.79330 27053 ft 570 kts 110°
2026-05-05 22:20 59.90546 -127.71932 27054 ft 569 kts 111°
2026-05-05 22:20 59.89224 -127.64489 27054 ft 570 kts 111°
2026-05-05 22:20 59.87880 -127.57036 27055 ft 570 kts 112°
2026-05-05 22:21 59.86523 -127.49643 27056 ft 570 kts 112°
2026-05-05 22:21 59.85115 -127.42193 27056 ft 570 kts 112°
2026-05-05 22:21 59.83714 -127.34898 27057 ft 570 kts 114°
2026-05-05 22:21 59.82304 -127.27540 27050 ft 570 kts 114°
2026-05-05 22:22 59.80867 -127.20162 26861 ft 574 kts 114°
2026-05-05 22:22 59.79394 -127.12691 26847 ft 575 kts 114°
2026-05-05 22:22 59.77953 -127.05297 26842 ft 575 kts 113°
2026-05-05 22:22 59.76487 -126.97888 26844 ft 575 kts 114°
2026-05-05 22:23 59.75017 -126.90616 26842 ft 575 kts 114°
2026-05-05 22:23 59.73510 -126.83175 26842 ft 575 kts 114°
2026-05-05 22:23 59.72033 -126.75907 26843 ft 575 kts 114°
2026-05-05 22:23 59.70507 -126.68468 26843 ft 575 kts 114°
2026-05-05 22:24 59.69010 -126.61231 26844 ft 575 kts 114°
2026-05-05 22:24 59.67469 -126.53854 26845 ft 575 kts 114°
2026-05-05 22:24 59.65888 -126.46523 26845 ft 575 kts 115°
2026-05-05 22:24 59.64270 -126.39310 26846 ft 575 kts 116°
2026-05-05 22:25 59.62624 -126.32073 26841 ft 575 kts 117°
2026-05-05 22:25 59.60928 -126.24908 26839 ft 574 kts 118°
2026-05-05 22:25 59.59157 -126.17821 26844 ft 574 kts 120°
2026-05-05 22:25 59.57288 -126.10892 26855 ft 572 kts 122°
2026-05-05 22:26 59.55592 -126.03885 26904 ft 573 kts 113°
2026-05-05 22:26 59.54189 -125.96428 26880 ft 574 kts 111°
2026-05-05 22:26 59.52862 -125.89046 26879 ft 574 kts 111°
2026-05-05 22:26 59.51494 -125.81634 26879 ft 574 kts 112°
2026-05-05 22:27 59.50128 -125.74282 26880 ft 574 kts 112°
2026-05-05 22:27 59.48744 -125.66868 26880 ft 574 kts 112°
2026-05-05 22:27 59.47366 -125.59529 26881 ft 575 kts 112°
2026-05-05 22:27 59.45981 -125.52181 26881 ft 575 kts 112°
2026-05-05 22:28 59.44569 -125.44738 26882 ft 575 kts 112°
2026-05-05 22:28 59.43173 -125.37409 26883 ft 575 kts 112°
2026-05-05 22:28 59.41758 -125.30019 26876 ft 575 kts 113°
2026-05-05 22:28 59.40355 -125.22690 26876 ft 575 kts 113°
2026-05-05 22:29 59.38932 -125.15263 26876 ft 576 kts 113°
2026-05-05 22:29 59.37517 -125.07886 26877 ft 576 kts 112°
2026-05-05 22:29 59.36113 -125.00635 26878 ft 575 kts 113°
2026-05-05 22:29 59.34638 -124.93268 26878 ft 575 kts 113°
2026-05-05 22:30 59.33145 -124.85925 26879 ft 575 kts 113°
2026-05-05 22:30 59.31657 -124.78696 26880 ft 575 kts 114°
2026-05-05 22:30 59.30103 -124.71446 26880 ft 575 kts 114°
2026-05-05 22:30 59.28534 -124.64242 26881 ft 575 kts 114°
2026-05-05 22:31 59.26981 -124.57113 26881 ft 576 kts 114°
2026-05-05 22:31 59.25398 -124.49857 26882 ft 576 kts 114°
2026-05-05 22:31 59.23834 -124.42691 26882 ft 576 kts 114°
2026-05-05 22:31 59.22248 -124.35429 26883 ft 576 kts 114°
2026-05-05 22:32 59.20669 -124.28194 26877 ft 576 kts 115°
2026-05-05 22:32 59.19113 -124.21043 26877 ft 576 kts 115°
2026-05-05 22:32 59.17508 -124.13837 26877 ft 576 kts 115°
2026-05-05 22:32 59.15896 -124.06751 26878 ft 576 kts 115°
2026-05-05 22:33 59.14262 -123.99573 26878 ft 576 kts 115°
2026-05-05 22:33 59.12644 -123.92442 26879 ft 576 kts 115°
2026-05-05 22:33 59.11008 -123.85301 26880 ft 576 kts 116°
2026-05-05 22:33 59.09327 -123.78188 26881 ft 576 kts 116°
2026-05-05 22:34 59.07661 -123.71203 26886 ft 576 kts 116°
2026-05-05 22:34 59.05971 -123.64100 26891 ft 576 kts 116°
2026-05-05 22:34 59.04281 -123.57051 26898 ft 576 kts 117°
2026-05-05 22:34 59.02526 -123.49989 26901 ft 576 kts 117°
2026-05-05 22:35 59.00781 -123.43058 26901 ft 576 kts 117°
2026-05-05 22:35 58.99003 -123.35983 26902 ft 576 kts 117°
2026-05-05 22:35 58.97212 -123.29018 26896 ft 576 kts 119°
2026-05-05 22:35 58.95386 -123.22153 26895 ft 576 kts 120°
2026-05-05 22:36 58.93530 -123.15314 26896 ft 575 kts 121°
2026-05-05 22:36 58.91572 -123.08507 26897 ft 575 kts 122°
2026-05-05 22:36 58.89442 -123.01920 26930 ft 569 kts 132°
2026-05-05 22:36 58.87010 -122.95918 26901 ft 569 kts 130°
2026-05-05 22:37 58.84584 -122.89847 26896 ft 569 kts 129°
2026-05-05 22:37 58.82179 -122.83837 26896 ft 569 kts 129°
2026-05-05 22:37 58.79724 -122.77747 26896 ft 569 kts 130°
2026-05-05 22:37 58.77301 -122.71777 26897 ft 569 kts 130°
2026-05-05 22:38 58.74862 -122.65813 26897 ft 569 kts 130°
2026-05-05 22:38 58.72377 -122.59784 26898 ft 569 kts 130°
2026-05-05 22:38 58.69901 -122.53871 26898 ft 568 kts 131°
2026-05-05 22:38 58.67405 -122.47975 26899 ft 569 kts 131°
2026-05-05 22:39 58.64896 -122.42031 26899 ft 569 kts 130°
2026-05-05 22:39 58.62394 -122.36155 26900 ft 568 kts 131°
2026-05-05 22:39 58.59871 -122.30249 26895 ft 569 kts 131°
2026-05-05 22:39 58.57412 -122.24412 26894 ft 569 kts 131°
2026-05-05 22:40 58.54898 -122.18479 26894 ft 568 kts 131°
2026-05-05 22:40 58.52395 -122.12633 26895 ft 568 kts 131°
2026-05-05 22:40 58.49908 -122.06796 26895 ft 568 kts 131°
2026-05-05 22:40 58.47400 -122.00880 26896 ft 568 kts 131°
2026-05-05 22:41 58.44900 -121.94997 26896 ft 568 kts 131°
2026-05-05 22:41 58.42423 -121.89178 26897 ft 568 kts 131°
2026-05-05 22:41 58.39912 -121.83293 26897 ft 568 kts 131°
2026-05-05 22:41 58.37416 -121.77457 26898 ft 568 kts 131°
2026-05-05 22:42 58.34938 -121.71674 26898 ft 568 kts 131°
2026-05-05 22:42 58.32438 -121.65852 26899 ft 568 kts 131°
2026-05-05 22:42 58.29944 -121.60059 26899 ft 568 kts 131°
2026-05-05 22:42 58.27417 -121.54202 26899 ft 568 kts 131°
2026-05-05 22:43 58.24924 -121.48439 26900 ft 568 kts 131°
2026-05-05 22:43 58.22411 -121.42642 26900 ft 568 kts 131°
2026-05-05 22:43 58.19877 -121.36809 26901 ft 568 kts 131°
2026-05-05 22:43 58.17373 -121.31060 26896 ft 568 kts 132°
2026-05-05 22:44 58.14804 -121.25275 26895 ft 568 kts 133°
2026-05-05 22:44 58.12256 -121.19617 26896 ft 568 kts 133°
2026-05-05 22:44 58.09697 -121.13934 26896 ft 568 kts 133°
2026-05-05 22:44 58.07163 -121.08299 26897 ft 568 kts 133°
2026-05-05 22:45 58.04554 -121.02656 26908 ft 567 kts 133°
2026-05-05 22:45 58.01935 -120.97131 26929 ft 567 kts 134°
2026-05-05 22:45 57.99308 -120.91619 26960 ft 566 kts 133°
2026-05-05 22:45 57.96682 -120.86096 26991 ft 565 kts 133°
2026-05-05 22:46 57.94066 -120.80578 27013 ft 565 kts 133°
2026-05-05 22:46 57.91443 -120.75030 27025 ft 565 kts 133°
2026-05-05 22:46 57.88826 -120.69491 27025 ft 565 kts 133°
2026-05-05 22:46 57.86186 -120.64003 27025 ft 565 kts 134°
2026-05-05 22:47 57.83544 -120.58571 27025 ft 565 kts 134°
2026-05-05 22:47 57.80895 -120.53170 27025 ft 564 kts 134°
2026-05-05 22:47 57.78233 -120.47789 27026 ft 564 kts 134°
2026-05-05 22:47 57.75529 -120.42374 27026 ft 564 kts 134°
2026-05-05 22:48 57.72827 -120.37059 27027 ft 564 kts 135°
2026-05-05 22:48 57.70119 -120.31779 27023 ft 564 kts 136°
2026-05-05 22:48 57.67414 -120.26469 27022 ft 564 kts 135°
2026-05-05 22:48 57.64700 -120.21150 27022 ft 564 kts 136°
2026-05-05 22:49 57.61979 -120.15881 27022 ft 564 kts 136°
2026-05-05 22:49 57.59254 -120.10590 27023 ft 564 kts 135°
2026-05-05 22:49 57.56545 -120.05305 27023 ft 564 kts 135°
2026-05-05 22:49 57.53840 -120.00042 27024 ft 564 kts 135°
2026-05-05 22:50 57.51151 -119.94825 27024 ft 563 kts 135°
2026-05-05 22:50 57.48419 -119.89538 27025 ft 563 kts 135°
2026-05-05 22:50 57.45716 -119.84347 27025 ft 563 kts 136°
2026-05-05 22:50 57.42945 -119.79175 27025 ft 563 kts 137°
2026-05-05 22:51 57.40167 -119.74052 27026 ft 563 kts 137°
2026-05-05 22:51 57.37390 -119.68947 27026 ft 563 kts 137°
2026-05-05 22:51 57.34611 -119.63882 27027 ft 563 kts 137°
2026-05-05 22:51 57.31779 -119.58873 27027 ft 563 kts 138°
2026-05-05 22:52 57.28905 -119.53889 27028 ft 562 kts 139°
2026-05-05 22:52 57.26030 -119.49124 27029 ft 562 kts 140°
2026-05-05 22:52 57.23092 -119.44402 27030 ft 562 kts 141°
2026-05-05 22:52 57.20150 -119.39582 27057 ft 561 kts 134°
2026-05-05 22:53 57.17479 -119.34264 27039 ft 563 kts 134°
2026-05-05 22:53 57.14900 -119.28906 27033 ft 563 kts 133°
2026-05-05 22:53 57.12330 -119.23476 27034 ft 563 kts 133°
2026-05-05 22:53 57.09750 -119.18128 27034 ft 563 kts 133°
2026-05-05 22:54 57.07135 -119.12719 27035 ft 563 kts 133°
2026-05-05 22:54 57.04513 -119.07312 27035 ft 563 kts 133°
2026-05-05 22:54 57.01887 -119.02027 27037 ft 563 kts 133°
2026-05-05 22:54 56.99245 -118.96769 27050 ft 563 kts 133°
2026-05-05 22:55 56.96609 -118.91518 27067 ft 562 kts 133°
2026-05-05 22:55 56.93930 -118.86279 27083 ft 562 kts 134°
2026-05-05 22:55 56.91262 -118.81132 27099 ft 562 kts 134°
2026-05-05 22:55 56.88570 -118.75933 27105 ft 562 kts 133°
2026-05-05 22:56 56.85863 -118.70730 27105 ft 561 kts 134°
2026-05-05 22:56 56.83165 -118.65582 27106 ft 561 kts 134°
2026-05-05 22:56 56.80486 -118.60518 27106 ft 561 kts 134°
2026-05-05 22:56 56.77740 -118.55418 27106 ft 561 kts 134°
2026-05-05 22:57 56.74980 -118.50321 27107 ft 561 kts 134°
2026-05-05 22:57 56.72265 -118.45315 27107 ft 561 kts 135°
2026-05-05 22:57 56.69520 -118.40237 27108 ft 561 kts 134°
2026-05-05 22:57 56.66837 -118.35145 27108 ft 560 kts 133°
2026-05-05 22:58 56.64138 -118.30000 27105 ft 560 kts 134°
2026-05-05 22:58 56.61457 -118.24902 27105 ft 560 kts 134°
2026-05-05 22:58 56.58781 -118.19820 27105 ft 560 kts 134°
2026-05-05 22:58 56.56111 -118.14761 27105 ft 560 kts 134°
2026-05-05 22:59 56.53390 -118.09616 27106 ft 560 kts 134°
2026-05-05 22:59 56.50704 -118.04546 27106 ft 560 kts 134°
2026-05-05 22:59 56.48012 -117.99557 27106 ft 559 kts 135°
2026-05-05 22:59 56.45253 -117.94522 27107 ft 559 kts 135°
2026-05-05 23:00 56.39775 -117.84567 27108 ft 559 kts 135°
2026-05-05 23:00 56.37030 -117.79594 27108 ft 559 kts 135°
2026-05-05 23:00 56.34285 -117.74631 27108 ft 559 kts 135°
2026-05-05 23:01 56.31562 -117.69719 27109 ft 559 kts 135°
2026-05-05 23:01 56.28789 -117.64831 27109 ft 559 kts 136°
2026-05-05 23:01 56.25959 -117.59933 27110 ft 559 kts 136°
2026-05-05 23:01 56.23177 -117.55133 27110 ft 559 kts 136°
2026-05-05 23:02 56.20349 -117.50262 27110 ft 559 kts 136°
2026-05-05 23:02 56.17542 -117.45400 27111 ft 559 kts 136°
2026-05-05 23:02 56.14763 -117.40574 27111 ft 559 kts 136°
2026-05-05 23:02 56.11961 -117.35716 27111 ft 560 kts 136°
2026-05-05 23:03 56.09168 -117.30877 27108 ft 560 kts 136°
2026-05-05 23:03 56.06373 -117.26016 27108 ft 560 kts 136°
2026-05-05 23:03 56.03619 -117.21205 27108 ft 560 kts 136°
2026-05-05 23:03 56.00837 -117.16325 27109 ft 560 kts 136°
2026-05-05 23:04 55.98042 -117.11426 27109 ft 560 kts 136°
2026-05-05 23:04 55.95270 -117.06668 27110 ft 560 kts 137°
2026-05-05 23:04 55.92440 -117.01843 27110 ft 560 kts 136°
2026-05-05 23:04 55.89645 -116.97063 27110 ft 560 kts 136°
2026-05-05 23:05 55.86801 -116.92272 27104 ft 560 kts 136°
2026-05-05 23:05 55.83966 -116.87576 27104 ft 560 kts 136°
2026-05-05 23:05 55.81092 -116.82848 27104 ft 560 kts 137°
2026-05-05 23:05 55.78229 -116.78172 27105 ft 560 kts 137°
2026-05-05 23:06 55.75382 -116.73551 27105 ft 560 kts 137°
2026-05-05 23:06 55.72486 -116.68920 27106 ft 560 kts 137°
2026-05-05 23:06 55.69618 -116.64371 27106 ft 559 kts 137°
2026-05-05 23:06 55.66718 -116.59756 27106 ft 559 kts 137°
2026-05-05 23:07 55.63813 -116.55192 27033 ft 562 kts 138°
2026-05-05 23:07 55.60907 -116.50600 26989 ft 562 kts 137°
2026-05-05 23:07 55.58004 -116.45931 26980 ft 562 kts 137°
2026-05-05 23:07 55.55127 -116.41316 26980 ft 563 kts 137°
2026-05-05 23:08 55.52219 -116.36695 26980 ft 563 kts 137°
2026-05-05 23:08 55.49289 -116.32111 26978 ft 563 kts 138°
2026-05-05 23:08 55.46332 -116.27480 26978 ft 563 kts 138°
2026-05-05 23:08 55.43438 -116.22908 26978 ft 563 kts 138°
2026-05-05 23:09 55.40501 -116.18301 26978 ft 563 kts 138°
2026-05-05 23:09 55.37615 -116.13782 26979 ft 563 kts 138°
2026-05-05 23:09 55.34670 -116.09127 26979 ft 563 kts 137°
2026-05-05 23:09 55.31784 -116.04586 26980 ft 563 kts 138°
2026-05-05 23:10 55.28851 -115.99997 26980 ft 564 kts 138°
2026-05-05 23:10 55.25960 -115.95431 26980 ft 564 kts 137°
2026-05-05 23:10 55.23041 -115.90806 26981 ft 564 kts 137°
2026-05-05 23:10 55.20139 -115.86206 26981 ft 564 kts 137°
2026-05-05 23:11 55.17244 -115.81617 26982 ft 564 kts 137°
2026-05-05 23:11 55.14314 -115.76971 26982 ft 564 kts 137°
2026-05-05 23:11 55.11417 -115.72375 26983 ft 565 kts 137°
2026-05-05 23:11 55.08532 -115.67799 26983 ft 565 kts 137°
2026-05-05 23:12 55.05623 -115.63183 26983 ft 565 kts 137°
2026-05-05 23:12 55.02728 -115.58587 26984 ft 565 kts 137°
2026-05-05 23:12 54.99802 -115.53940 26984 ft 566 kts 137°
2026-05-05 23:12 54.96893 -115.49316 26985 ft 566 kts 137°
2026-05-05 23:13 54.94008 -115.44727 26985 ft 566 kts 137°
2026-05-05 23:13 54.91128 -115.40142 26993 ft 567 kts 137°
2026-05-05 23:13 54.88193 -115.35469 27008 ft 567 kts 137°
2026-05-05 23:13 54.85274 -115.30845 27022 ft 566 kts 138°
2026-05-05 23:14 54.82353 -115.26235 27043 ft 566 kts 138°
2026-05-05 23:14 54.79435 -115.21648 27065 ft 565 kts 138°
2026-05-05 23:14 54.76532 -115.17099 27082 ft 565 kts 138°
2026-05-05 23:14 54.73635 -115.12580 27085 ft 565 kts 138°
2026-05-05 23:15 54.70706 -115.08029 27086 ft 565 kts 138°
2026-05-05 23:15 54.67792 -115.03522 27036 ft 568 kts 138°
2026-05-05 23:15 54.64787 -114.98891 25894 ft 592 kts 138°
2026-05-05 23:15 54.61667 -114.94102 24717 ft 603 kts 138°
2026-05-05 23:16 54.58555 -114.89343 23592 ft 606 kts 138°
2026-05-05 23:16 54.55359 -114.84476 22455 ft 608 kts 138°
2026-05-05 23:16 54.52189 -114.79673 21340 ft 610 kts 138°
2026-05-05 23:16 54.48985 -114.74871 20224 ft 612 kts 138°
2026-05-05 23:17 54.45779 -114.70089 19113 ft 613 kts 138°
2026-05-05 23:17 54.42583 -114.65339 18012 ft 614 kts 138°
2026-05-05 23:17 54.39336 -114.60528 16898 ft 616 kts 138°
2026-05-05 23:17 54.36075 -114.55731 15789 ft 617 kts 139°
2026-05-05 23:18 54.32835 -114.51004 14693 ft 619 kts 139°
2026-05-05 23:18 54.29526 -114.46254 14032 ft 615 kts 140°
2026-05-05 23:18 54.26247 -114.41649 13875 ft 609 kts 139°
2026-05-05 23:18 54.23043 -114.36997 13926 ft 604 kts 137°
2026-05-05 23:19 54.19886 -114.32280 13863 ft 602 kts 139°
2026-05-05 23:19 54.16785 -114.27766 13942 ft 553 kts 139°
2026-05-05 23:19 54.14123 -114.23862 13908 ft 466 kts 139°
2026-05-05 23:19 54.11827 -114.20488 13692 ft 406 kts 138°
2026-05-05 23:20 54.09829 -114.17497 13439 ft 359 kts 137°
2026-05-05 23:20 54.08107 -114.14790 13258 ft 318 kts 135°
2026-05-05 23:20 54.06509 -114.12394 12603 ft 301 kts 139°
2026-05-05 23:20 54.04915 -114.10152 11746 ft 300 kts 139°
2026-05-05 23:21 54.03318 -114.07909 10601 ft 304 kts 137°
2026-05-05 23:21 54.01703 -114.05586 9427 ft 305 kts 139°
2026-05-05 23:21 54.00091 -114.03378 8624 ft 288 kts 139°
2026-05-05 23:21 53.98581 -114.01290 8076 ft 275 kts 139°
2026-05-05 23:22 53.97155 -113.99297 7930 ft 261 kts 138°
2026-05-05 23:22 53.95735 -113.97308 7890 ft 267 kts 138°
2026-05-05 23:22 53.94303 -113.95297 7870 ft 272 kts 139°
2026-05-05 23:22 53.92829 -113.93252 7911 ft 274 kts 137°
2026-05-05 23:23 53.91346 -113.91193 7979 ft 276 kts 139°
2026-05-05 23:23 53.89854 -113.89139 7983 ft 281 kts 138°
2026-05-05 23:23 53.88336 -113.87060 7974 ft 276 kts 139°
2026-05-05 23:23 53.86852 -113.85010 7978 ft 274 kts 137°
2026-05-05 23:24 53.85358 -113.82973 7977 ft 277 kts 138°
2026-05-05 23:24 53.83887 -113.80884 7982 ft 280 kts 136°
2026-05-05 23:24 53.82359 -113.78723 7969 ft 285 kts 137°
2026-05-05 23:24 53.80860 -113.76563 7996 ft 288 kts 136°
2026-05-05 23:25 53.79337 -113.74288 7824 ft 298 kts 136°
2026-05-05 23:25 53.77810 -113.71981 7168 ft 283 kts 136°
2026-05-05 23:25 53.76403 -113.69898 6603 ft 262 kts 136°
2026-05-05 23:25 53.75070 -113.67986 6088 ft 242 kts 137°
2026-05-05 23:26 53.73779 -113.66081 5593 ft 252 kts 137°
2026-05-05 23:26 53.72429 -113.64023 5122 ft 265 kts 136°
2026-05-05 23:26 53.71096 -113.61939 4967 ft 262 kts 134°
2026-05-05 23:26 53.69761 -113.59850 4979 ft 254 kts 135°
2026-05-05 23:27 53.68491 -113.57864 4980 ft 246 kts 135°
2026-05-05 23:27 53.67263 -113.55971 4980 ft 236 kts 135°
2026-05-05 23:27 53.66062 -113.54134 4980 ft 228 kts 135°
2026-05-05 23:27 53.64894 -113.52325 5002 ft 226 kts 134°
2026-05-05 23:28 53.63737 -113.50504 4947 ft 231 kts 135°
2026-05-05 23:28 53.62570 -113.48675 4996 ft 231 kts 134°
2026-05-05 23:28 53.61391 -113.46803 4967 ft 236 kts 135°
2026-05-05 23:28 53.60097 -113.45088 4998 ft 235 kts 157°
2026-05-05 23:29 53.58548 -113.44145 5024 ft 236 kts 162°
2026-05-05 23:29 53.56947 -113.43356 4950 ft 244 kts 163°
2026-05-05 23:29 53.55297 -113.42603 4939 ft 249 kts 165°
2026-05-05 23:29 53.53601 -113.41906 4980 ft 252 kts 166°
2026-05-05 23:30 53.51889 -113.41215 5017 ft 256 kts 166°
2026-05-05 23:30 53.50153 -113.40517 5072 ft 260 kts 166°
2026-05-05 23:30 53.48373 -113.39819 5082 ft 266 kts 166°
2026-05-05 23:30 53.46544 -113.39123 5031 ft 276 kts 167°
2026-05-05 23:31 53.44622 -113.38432 4987 ft 285 kts 168°
2026-05-05 23:31 53.42652 -113.37804 5033 ft 292 kts 169°
2026-05-05 23:31 53.40634 -113.37244 5126 ft 298 kts 166°
2026-05-05 23:31 53.38746 -113.36379 4998 ft 261 kts 161°
2026-05-05 23:32 53.37130 -113.35541 4942 ft 225 kts 162°
2026-05-05 23:32 53.35686 -113.34862 4755 ft 211 kts 165°
2026-05-05 23:32 53.34294 -113.34274 4578 ft 201 kts 166°
2026-05-05 23:32 53.32973 -113.33826 4460 ft 187 kts 171°
2026-05-05 23:33 53.31736 -113.33601 4377 ft 167 kts 177°
2026-05-05 23:33 53.30545 -113.33507 4302 ft 178 kts 179°
2026-05-05 23:33 53.29203 -113.33430 4300 ft 204 kts 171°
2026-05-05 23:33 53.27764 -113.33052 4299 ft 216 kts 171°
2026-05-05 23:34 53.26257 -113.32649 4344 ft 223 kts 171°
2026-05-05 23:34 53.24722 -113.32175 4364 ft 216 kts 183°
2026-05-05 23:34 53.23425 -113.33023 4369 ft 202 kts 225°
2026-05-05 23:34 53.22396 -113.34662 4221 ft 205 kts 226°
2026-05-05 23:35 53.21370 -113.36335 4186 ft 203 kts 226°
2026-05-05 23:35 53.20372 -113.37987 4166 ft 200 kts 233°
2026-05-05 23:35 53.19762 -113.39932 4222 ft 186 kts 260°
2026-05-05 23:35 53.19503 -113.42011 4280 ft 183 kts 263°
2026-05-05 23:36 53.19523 -113.44120 4269 ft 190 kts 309°
2026-05-05 23:36 53.20560 -113.45770 4037 ft 219 kts 323°
2026-05-05 23:36 53.21804 -113.47202 3901 ft 204 kts 332°
2026-05-05 23:36 53.22942 -113.48269 3714 ft 176 kts 330°
2026-05-05 23:37 53.23907 -113.49224 3614 ft 154 kts 332°
2026-05-05 23:37 53.24990 -113.50270 3462 ft 198 kts 328°
2026-05-05 23:37 53.26018 -113.51807 3118 ft 196 kts 312°
2026-05-05 23:37 53.26908 -113.53416 2872 ft 189 kts 318°
2026-05-05 23:38 53.27850 -113.54948 2558 ft 183 kts 317°
2026-05-05 23:38 53.28737 -113.56408 2342 ft 173 kts 316°
2026-05-05 23:38 53.29473 -113.57642 2330 ft 91 kts 316°
2026-05-05 23:38 53.29856 -113.58260 2330 ft 46 kts 331°
2026-05-05 23:39 53.30070 -113.58601 2330 ft 47 kts 315°
2026-05-05 23:39 53.30278 -113.58857 2330 ft 30 kts
2026-05-05 23:39 53.30486 -113.58862 2330 ft 24 kts 335°
2026-05-05 23:39 53.30608 -113.59061 2330 ft 25 kts 315°
2026-05-05 23:40 53.30741 -113.59284 2330 ft 24 kts 317°
2026-05-05 23:40 53.30866 -113.59239 2330 ft 21 kts 35°
2026-05-05 23:40 53.30998 -113.59083 2330 ft 25 kts 36°
2026-05-05 23:40 53.31151 -113.58903 2330 ft 28 kts 36°
2026-05-05 23:41 53.31326 -113.58699 2330 ft 32 kts 35°
2026-05-05 23:41 53.31518 -113.58476 2330 ft 35 kts 35°
2026-05-05 23:41 53.31708 -113.58251 2330 ft 33 kts 35°
2026-05-05 23:41 53.31907 -113.58021 2330 ft 36 kts 36°
2026-05-05 23:42 53.32119 -113.57774 2330 ft 36 kts 36°
2026-05-05 23:42 53.32272 -113.57555 2330 ft 20 kts 94°
2026-05-05 23:42 53.32201 -113.57358 2330 ft 16 kts 121°